Terug naar catalogus

BLOCK DM-SL R/B

ActiefGTO
NORAD 39021·ROCKET BODY· XX

Gelanceerd Dec 3, 2012 vanaf Sea Launch Platform

Loading…

TLE

VerouderendSource: Space-Track

Epoch: Sep 14, 2026, 05:52 UTC

1 39021U 12069B   26257.24506707 -.00000185  00000-0  00000-0 0  9991
2 39021   0.8134  15.5781 6869423 150.8510 231.1774  2.21902968111746

Volg BLOCK DM-SL R/B in realtime met AllMySat

Download on the App Store